Minot AFB, ND

10:54 AM CDT on August 19, 2017 (GMT -0500)
Minot Air Force Base

Weather History for KMIB - November, 2012

Change the Weather History Date:

Tuesday, November 27, 2012

  Actual Average Record
Temperature  
Mean Temperature 20 °F -  
Max Temperature 25 °F 29 °F 43 °F (2011)
Min Temperature 15 °F 14 °F -22 °F (2014)
Degree Days  
Heating Degree Days 45    
Moisture  
Dew Point 19 °F    
Average Humidity 89    
Maximum Humidity 94    
Minimum Humidity 84    
Precipitation  
Precipitation 0.00 in - - ()
Sea Level Pressure  
Sea Level Pressure 30.20 in    
Wind  
Wind Speed 7 mph (WNW)    
Max Wind Speed 13 mph    
Max Gust Speed -    
Visibility 10 miles    
Events      
Averages and records for this station are not official NWS values.
T = Trace of Precipitation, MM = Missing Value Source: NWS Daily Summary

Daily Weather History Graph

Daily Weather History Graph

Search for Another Location

Airport or City:

Trip Planner

Search our weather history database for the weather conditions in past years. The results will help you decide how hot, cold, wet, or windy it might be!

Date:

Astronomy

Nov. 27, 2012 Rise Set
Actual Time 8:11 AM CST 4:54 PM CST
Civil Twilight 7:35 AM CST 5:30 PM CST
Nautical Twilight 6:56 AM CST 6:09 PM CST
Astronomical Twilight 6:19 AM CST 6:47 PM CST
Moon 4:28 PM CST (11/27) 7:16 AM CST (11/27)
Length of Visible Light 9h 54m
Length of Day
8h 43m
Waxing Gibbous, 99% of the Moon is Illuminated
Nov 27
Waxing Gibbous
Nov 28
Full
Dec 6
Last Quarter
Dec 13
New
Dec 19
First Quarter

Hourly Weather History & Observations

Time (CST) Temp. Windchill Dew Point Humidity Pressure Visibility Wind Dir Wind Speed Gust Speed Precip Events Conditions
12:55 AM 18.1 °F 7.9 °F 16.5 °F 93% 30.17 in 10.0 mi WSW 8.1 mph - N/A   Scattered Clouds
1:55 AM 18.0 °F 9.8 °F 16.3 °F 93% 30.16 in 10.0 mi WSW 5.8 mph - N/A   Partly Cloudy
2:02 AM 17.6 °F 8.2 °F 15.8 °F 93% 30.16 in 10.0 mi WSW 6.9 mph - N/A   Mostly Cloudy
2:48 AM 15.8 °F 7.2 °F 14.0 °F 93% 30.16 in 10.0 mi WSW 5.8 mph - N/A   Scattered Clouds
2:52 AM 15.8 °F 6.1 °F 14.0 °F 93% 30.16 in 10.0 mi WSW 6.9 mph - N/A   Mostly Cloudy
2:55 AM 16.3 °F 6.7 °F 14.9 °F 94% 30.16 in 10.0 mi WSW 6.9 mph - N/A   Mostly Cloudy
3:25 AM 15.8 °F 8.6 °F 14.0 °F 93% 30.16 in 10.0 mi West 4.6 mph - N/A   Overcast
3:55 AM 17.2 °F 10.2 °F 15.6 °F 93% 30.16 in 10.0 mi West 4.6 mph - N/A   Overcast
4:55 AM 20.7 °F 14.2 °F 19.0 °F 93% 30.15 in 10.0 mi WNW 4.6 mph - N/A   Overcast
5:55 AM 22.5 °F 16.3 °F 20.5 °F 92% 30.15 in 10.0 mi NW 4.6 mph - N/A   Overcast
6:52 AM 23.0 °F - 19.4 °F 86% 30.14 in 10.0 mi Calm Calm - N/A   Overcast
6:55 AM 22.3 °F - 19.9 °F 91% 30.14 in 10.0 mi Calm Calm - N/A   Overcast
7:55 AM 23.0 °F 14.7 °F 21.0 °F 92% 30.16 in 10.0 mi NW 6.9 mph - N/A   Overcast
8:55 AM 23.5 °F 17.6 °F 21.6 °F 92% 30.16 in 10.0 mi NW 4.6 mph - N/A   Overcast
9:19 AM 23.0 °F 14.7 °F 21.2 °F 93% 30.17 in 10.0 mi NNW 6.9 mph - N/A   Overcast
9:55 AM 24.3 °F 18.4 °F 22.3 °F 92% 30.18 in 9.0 mi WNW 4.6 mph - N/A   Overcast
9:56 AM 24.8 °F 17.9 °F 23.0 °F 93% 30.18 in 10.0 mi WNW 5.8 mph - N/A   Overcast
10:55 AM 25.5 °F 16.9 °F 23.0 °F 90% 30.19 in 10.0 mi West 8.1 mph - N/A   Overcast
11:55 AM 25.3 °F 16.0 °F 22.6 °F 89% 30.20 in 10.0 mi West 9.2 mph - N/A   Overcast
12:55 PM 24.4 °F 13.5 °F 21.4 °F 88% 30.21 in 10.0 mi WNW 11.5 mph - N/A   Overcast
1:55 PM 24.4 °F 14.9 °F 21.6 °F 89% 30.20 in 10.0 mi WNW 9.2 mph - N/A   Overcast
2:55 PM 24.6 °F 13.2 °F 21.4 °F 87% 30.20 in 10.0 mi West 12.7 mph - N/A   Overcast
3:25 PM 24.8 °F 13.4 °F 21.2 °F 86% 30.22 in 10.0 mi WNW 12.7 mph - N/A   Overcast
3:46 PM 24.8 °F 13.4 °F 21.2 °F 86% 30.22 in 10.0 mi WNW 12.7 mph - N/A   Overcast
3:55 PM 24.6 °F 13.2 °F 21.2 °F 87% 30.22 in 10.0 mi WNW 12.7 mph - N/A   Overcast
4:55 PM 23.9 °F 13.5 °F 20.8 °F 88% 30.24 in 10.0 mi WNW 10.4 mph - N/A   Overcast
5:38 PM 21.2 °F 12.6 °F 17.6 °F 86% 30.25 in 10.0 mi Variable 6.9 mph - N/A   Overcast
5:55 PM 22.3 °F 14.9 °F 18.7 °F 86% 30.25 in 10.0 mi NW 5.8 mph - N/A   Overcast
6:55 PM 22.5 °F - 18.5 °F 85% 30.26 in 10.0 mi Calm Calm - N/A   Overcast
7:55 PM 23.0 °F 13.9 °F 18.7 °F 84% 30.27 in 10.0 mi NW 8.1 mph - N/A   Overcast
8:55 PM 23.2 °F 14.1 °F 19.4 °F 85% 30.28 in 10.0 mi NNW 8.1 mph - N/A   Overcast
9:55 PM 22.5 °F 14.1 °F 18.5 °F 85% 30.28 in 10.0 mi NW 6.9 mph - N/A   Overcast
10:55 PM 22.5 °F 16.3 °F 18.9 °F 86% 30.27 in 10.0 mi West 4.6 mph - N/A   Overcast
11:55 PM 22.8 °F 18.2 °F 19.4 °F 87% 30.27 in 10.0 mi Variable 3.5 mph - N/A   Overcast